Preview of NWS' New Version of Forecast
This preview is not operational and should not be used for support decisions.

Regional Weather Roundup (RWR)

Issued by National Weather Service (NWS)

                            
000
ASUS42 KTBW 211417
RWRFL 
FLORIDA REGIONAL WEATHER ROUNDUP
NATIONAL WEATHER SERVICE TAMPA BAY RUSKIN FL
1000 AM EDT SUN JUL 21 2019

NOTE: "FAIR" INDICATES FEW OR NO CLOUDS BELOW 12,000 FEET WITH NO
SIGNIFICANT WEATHER AND/OR OBSTRUCTIONS TO VISIBILITY.

FLZ001>010-012>015-112-114-115-211500-
PANHANDLE FLORIDA
  
CITY           SKY/WX    TMP DP  RH WIND       PRES   REMARKS
PENSACOLA      PTSUNNY   81  76  84 E3        30.06R                  
PENSACOLA NAS  FAIR      84  75  74 NE5       30.05S                  
MILTON NAS     CLOUDY    79  74  84 CALM        N/A                   
CRESTVIEW      FAIR      84  73  69 CALM      30.09R                  
DUKE FIELD     FAIR      82  72  71 E3        30.07S                  
VALPARAISO     FAIR      83  73  72 CALM      30.07R                  
MARY ESTHER    MOSUNNY   83  73  71 CALM      30.05S                  
TRI COUNTY     FAIR      83  74  74 CALM      30.09S                  
PANAMA CITY    FAIR      83  73  72 E3        30.07S                  
TYNDALL AFB    FAIR      84  73  68 E3        30.06F                  
APALACHICOLA   FAIR      79  74  84 NE6       30.07R                  

STATION/POSITION SKY/WX   TEMP    WIND        PRES    WAVE   SWELL
                          AIR SEA DIR/SP/G            HT/PER HT/PER
                          (F)     (DEG/KT/KT) (MB)    (FT/S) (FT/S)
30.1N   87.6W              79 85   20/  6/ 10 1017.9R   1/ 8   2/ 8
29.2N   88.2W              81      10/ 10/ 12 1017.1
28.8N   86.0W                 85  170/  4/  6 1017.8R   2/ 3
PANAMA CITY BEAC           81 85  120/  4/  6 1018.8R
TOWER C                    82      50/  4/  6 1018.5R
28.5N   84.5W              84     130/  6/  6 1018.2R   2/ 5   2/ 5

$$
FLZ011-016>038-118-127-128-134-139-239-211500-
NORTH FLORIDA
  
CITY           SKY/WX    TMP DP  RH WIND       PRES   REMARKS
MARIANNA       FAIR      82  74  76 S3        30.08S                  
TALLAHASSEE    FAIR      80  75  84 CALM      30.08S                  
PERRY          FAIR      83  76  80 W5        30.11R                  
LIVE OAK       SUNNY     82  75  78 CALM      30.09S                  
CROSS CITY     FAIR      83  75  76 CALM      30.09S                  
LAKE CITY      FAIR      81  73  78 S6        30.10S                  
GAINESVILLE    FAIR      82  75  79 VRB3      30.11S                  
WILLISTON      FAIR      83  77  80 S7        30.08S                  
PALATKA        FAIR      84  75  74 SW7       30.09S                  
MAYPORT NAS    FAIR      85  73  67 SW7       30.08S                  
JACKSONVILLE   FAIR      84  73  69 VRB3      30.08S                  
JAX NAS        FAIR      84  72  67 S9        30.08F                  
JAX CECIL      SUNNY     86  75  70 S5        30.08S HX  95           
FERNANDINA BEA FAIR      83  76  77 SW7       30.08S                  
ST AUGUSTINE   FAIR      85  75  72 SW8       30.09S                  
PALM COAST     MOSUNNY   84  75  74 S9        30.07F                  

STATION/POSITION SKY/WX   TEMP    WIND        PRES    WAVE   SWELL
                          AIR SEA DIR/SP/G            HT/PER HT/PER
                          (F)     (DEG/KT/KT) (MB)    (FT/S) (FT/S)
SHELL POINT      NOT AVBL
KEATON BEACH               79     300/ 15/ 17 1019.2R
CEDAR KEY                  82     150/  6/  7 1018.6R
FERNANDINA                 87 86  220/  4/  7 1019.3F
30.7N   81.3W                 83                N/A     2/ 8
MAYPORT                    82 84  230/  5/  6 1019.2S
31.4N   80.9W              81 83  260/ 12/ 14 1018.4R   2/ 8   2/ 8
ST AUGUSTINE               80 77  140/  6/  6 1019.1R

$$
FLZ040-043>046-052-053-057-058-063-144-211500-
INTERIOR CENTRAL FLORIDA
  
CITY           SKY/WX    TMP DP  RH WIND       PRES   REMARKS
OCALA          FAIR      85  76  74 VRB6      30.08F                  
LEESBURG       FAIR      85  75  72 S5        30.08F                  
SANFORD        FAIR      85  74  69 SE5       30.08F                  
ORLANDO EXEC   FAIR      86  75  69 SE7       30.08F HX  95           
ORLANDO INTL   FAIR      84  74  71 S6        30.08F                  
KISSIMMEE      PTSUNNY   84  75  74 SE5       30.09F                  
WINTER HAVEN   FAIR      84  75  74 E7        30.09F                  
LAKELAND       MOSUNNY   84  75  74 E6        30.08F                  
BARTOW         MOSUNNY   84  77  79 E5        30.07F                  
SEBRING        FAIR      84  75  74 SE9       30.08F                  
OKEECHOBEE     FAIR      84  77  79 E6        30.07S                  

$$
FLZ041-047-054-059-064-141-147-211500-
EAST CENTRAL FLORIDA
  
CITY           SKY/WX    TMP DP  RH WIND       PRES   REMARKS
ORMOND BEACH   MOSUNNY   84  77  79 S6        30.08F                  
DAYTONA BEACH  PTSUNNY   84  77  79 S6        30.08F                  
DELAND         FAIR      84  75  74 S6        30.08F                  
NEW SMYRNA BEA MOSUNNY   84  75  74 CALM      30.09F                  
JFK SPACE CTR  MOSUNNY   86  66  51 CALM      30.08S                  
TITUSVILLE     SUNNY     88  75  66 VRB5      30.09S HX  97           
CAPE CANAVERAL SUNNY     86  54  32 SE7       30.07S                  
PATRICK AFB    FAIR      86  80  84 E6        30.09S HX 101           
MELBOURNE      FAIR      87  77  72 E10       30.08S HX  99           
VERO BEACH     PTSUNNY   86  76  71 E10G18    30.09R HX  96           
FT PIERCE      FAIR      86  75  69 E9        30.08S HX  95           
STUART         MOSUNNY   86  75  70 E8        30.09R HX  95           

STATION/POSITION SKY/WX   TEMP    WIND        PRES    WAVE   SWELL
                          AIR SEA DIR/SP/G            HT/PER HT/PER
                          (F)     (DEG/KT/KT) (MB)    (FT/S) (FT/S)
28.5N   80.2W              84 83  130/  4/  4 1018.8F   2/ 8   2/ 8
28.9N   78.5W              85 86  130/  8/ 10   N/A     2/ 8   2/ 8
TRIDENT PIER               86 84  170/  2/  4 1020.2S
28.4N   80.5W                 83                N/A     1/ 8
27.5N   80.2W                 83                N/A     1/ 8

$$
FLZ050-056-061-142-242-148-248-149-249-151-251-155-255-
160-260-211500-
WEST CENTRAL FLORIDA
  
CITY           SKY/WX    TMP DP  RH WIND       PRES   REMARKS
CRYSTAL RIVER  FAIR      82  75  78 SE3       30.07F                  
INVERNESS      FAIR      82  81  94 SE3       30.08F HX  95           
BROOKSVILLE    FAIR      84  76  76 VRB5      30.08S                  
CLEARWATER AIR FAIR      82  75  78 E7        30.06S                  
ST PETE CLEARW FAIR      83  75  77 SE9       30.05F                  
TAMPA INTL     FAIR      85  74  69 SE6       30.06F                  
TAMPA EXEC     FAIR      84  77  79 CALM      30.07F                  
PLANT CITY     FAIR     N/A N/A N/A MISG      30.09F                  
MACDILL AFB    FAIR      84  76  74 SE7       30.05F                  
PETER O KNIGHT CLOUDY    86  77  74 S5        30.06F HX  97           
ST PETERSBURG  FAIR      83  76  79 E7        30.04F                  
SARASOTA       FAIR      84  76  76 E7        30.04S                  
VENICE         FAIR      86  77  74 SE9       30.06S HX  97           

STATION/POSITION SKY/WX   TEMP    WIND        PRES    WAVE   SWELL
                          AIR SEA DIR/SP/G            HT/PER HT/PER
                          (F)     (DEG/KT/KT) (MB)    (FT/S) (FT/S)
27.3N   84.2W                 86                N/A     2/ 4
CLEARWATER BEACH           82 87   90/  6/ 10 1017.9F
MIDDLE TAMPA BAY           81     130/  9/ 10 1018.1S
VENICE                     83 86  110/  7/  8 1017.8R

$$
FLZ066-069-070-075>078-162-262-165-265-211500-
SOUTHWEST FLORIDA AND KEYS
  
CITY           SKY/WX    TMP DP  RH WIND       PRES   REMARKS
PUNTA GORDA    FAIR      84  77  79 E10       30.07F                  
FT MYERS       FAIR      84  73  69 SE8       30.05F                  
SOUTHWEST INTL FAIR      84  74  71 SE8       30.06S                  
NAPLES         MOSUNNY   32  32 100 E6        30.05S WCI  26          
MARCO ISLAND   FAIR      86  74  67 MISG      30.07R                  
IMMOKALEE      FAIR      86  77  74 SE6       30.05S HX  97           
MARATHON       FAIR      86  74  67 SE9G16    30.04S                  
KEY WEST NAS   FAIR      89  73  59 SE13      30.03S HX  97           
KEY WEST INTL  FAIR      86  75  69 SE14      30.04R HX  95           

STATION/POSITION SKY/WX   TEMP    WIND        PRES    WAVE   SWELL
                          AIR SEA DIR/SP/G            HT/PER HT/PER
                          (F)     (DEG/KT/KT) (MB)    (FT/S) (FT/S)
NAPLES                     83 85              1017.7R
26.0N   85.6W              85 85  100/  6/  6 1017.0R   2/ 5   2/ 5
DRY TORTUGAS               84     130/ 15/ 17 1016.8R
SAND KEY                   84     140/ 17/ 20 1015.6
SOMBRERO KEY               82     130/ 12/ 15 1017.4
LONG KEY                   84                 1016.7

$$
FLZ067-068-071>074-168-172>174-211500-
SOUTHEAST FLORIDA 
  
CITY           SKY/WX    TMP DP  RH WIND       PRES   REMARKS
W PALM BEACH   PTSUNNY   87  74  64 E8        30.07F HX  95           
BOCA RATON     SUNNY     86  77  74 SE6       30.06F HX  97           
FT LAUDER-EXEC FAIR      86  75  69 VRB6      30.06F HX  95           
FT LAUDERDALE  FAIR      86  74  67 SE7       30.05F                  
POMPANO BEACH  FAIR      86  74  67 SE8       30.06F                  
PEMBROKE PINES FAIR      87  74  64 E6        30.07F HX  95           
OPA LOCKA      FAIR      87  74  64 E6        30.06F HX  95           
MIAMI          FAIR      87  72  60 E8        30.06F                  
WEST KENDALL   FAIR      86  75  69 E6        30.06S HX  95           
HOMESTEAD      FAIR      86  75  70 E8        30.05S HX  95           

STATION/POSITION SKY/WX   TEMP    WIND        PRES    WAVE   SWELL
                          AIR SEA DIR/SP/G            HT/PER HT/PER
                          (F)     (DEG/KT/KT) (MB)    (FT/S) (FT/S)
VIRGINIA KEY               85 88   50/  4/  5 1017.7
LAKE WORTH                 83 84  130/  5/  7 1019.4F
FOWEY ROCKS